Time,TemperatureF,DewpointF,PressureIn,WindDirection,WindDirectionDegrees,WindSpeedMPH,WindSpeedGustMPH,Humidity,HourlyPrecipIn,Conditions,Clouds,dailyrainin,SolarRadiationWatts/m^2,SoftwareType,DateUTC
2013-12-01 00:00:00,50.1,48.4,30.16,ESE,123,0.0,1.0,94,0.00,,CLR,0.00,44.00,VWS V15.00,2013-12-01 06:00:00,
2013-12-01 00:01:00,50.1,48.4,30.15,ESE,123,0.0,1.0,94,0.00,,BKN230,0.00,44.00,VWS V15.00,2013-12-01 06:01:00,
2013-12-01 00:06:00,50.2,48.5,30.16,ESE,123,0.0,0.0,94,0.00,,BKN230,0.00,44.00,VWS V15.00,2013-12-01 06:06:00,
2013-12-01 00:10:00,50.1,48.4,30.16,ESE,123,0.0,0.0,94,0.00,,CLR,0.00,44.00,VWS V15.00,2013-12-01 06:10:00,
2013-12-01 00:11:00,50.1,48.4,30.16,ESE,123,0.0,0.0,94,0.00,,BKN230,0.00,44.00,VWS V15.00,2013-12-01 06:11:00,
2013-12-01 00:16:00,50.0,48.3,30.16,ESE,123,0.0,0.0,94,0.00,,BKN230,0.00,44.00,VWS V15.00,2013-12-01 06:16:00,
2013-12-01 00:20:00,49.9,48.2,30.15,SE,124,0.0,0.0,94,0.00,,CLR,0.00,44.00,VWS V15.00,2013-12-01 06:20:00,
2013-12-01 00:21:00,49.9,48.2,30.15,ESE,123,0.0,0.0,94,0.00,,BKN230,0.00,44.00,VWS V15.00,2013-12-01 06:21:00,
2013-12-01 00:26:00,49.8,48.2,30.15,ESE,123,0.0,0.0,94,0.00,,BKN230,0.00,44.00,VWS V15.00,2013-12-01 06:26:00,
2013-12-01 00:30:00,49.7,48.0,30.14,SSE,161,0.0,0.0,94,0.00,,OVC270,0.00,44.00,VWS V15.00,2013-12-01 06:30:00,
2013-12-01 00:31:00,49.7,48.0,30.15,ESE,123,0.0,0.0,94,0.00,,BKN230,0.00,44.00,VWS V15.00,2013-12-01 06:31:00,
2013-12-01 00:36:00,49.7,48.0,30.14,SSE,159,0.0,0.0,94,0.00,,BKN300,0.00,44.00,VWS V15.00,2013-12-01 06:36:00,
2013-12-01 00:40:00,49.8,48.2,30.14,SSW,196,0.0,0.0,94,0.00,,CLR,0.00,44.00,VWS V15.00,2013-12-01 06:40:00,
2013-12-01 00:41:00,49.8,48.2,30.14,SSE,161,0.0,0.0,94,0.00,,BKN300,0.00,44.00,VWS V15.00,2013-12-01 06:41:00,
2013-12-01 00:46:00,49.9,48.2,30.14,South,169,0.0,0.0,94,0.00,,BKN300,0.00,44.00,VWS V15.00,2013-12-01 06:46:00,
2013-12-01 00:50:00,50.0,48.6,30.14,SSW,200,0.0,0.0,95,0.00,,CLR,0.00,44.00,VWS V15.00,2013-12-01 06:50:00,
2013-12-01 00:51:00,50.0,48.6,30.14,SSW,199,0.0,0.0,95,0.00,,BKN300,0.00,44.00,VWS V15.00,2013-12-01 06:51:00,
2013-12-01 00:56:00,50.0,48.3,30.14,SSW,199,0.0,0.0,94,0.00,,BKN300,0.00,44.00,VWS V15.00,2013-12-01 06:56:00,
2013-12-01 01:00:00,50.0,48.3,30.14,SSW,199,0.0,0.0,94,0.00,,CLR,0.00,44.00,VWS V15.00,2013-12-01 07:00:00,
2013-12-01 01:01:00,50.0,48.3,30.14,SSW,199,0.0,0.0,94,0.00,,BKN300,0.00,44.00,VWS V15.00,2013-12-01 07:01:00,
2013-12-01 01:06:00,49.9,48.2,30.14,SSW,199,0.0,0.0,94,0.00,,BKN300,0.00,44.00,VWS V15.00,2013-12-01 07:06:00,
2013-12-01 01:10:00,49.7,48.0,30.14,SSW,199,0.0,0.0,94,0.00,,CLR,0.00,44.00,VWS V15.00,2013-12-01 07:10:00,
2013-12-01 01:11:00,49.8,48.2,30.14,SSW,199,0.0,0.0,94,0.00,,BKN300,0.00,44.00,VWS V15.00,2013-12-01 07:11:00,
2013-12-01 01:16:00,49.7,48.0,30.14,SSW,198,0.0,0.0,94,0.00,,BKN300,0.00,44.00,VWS V15.00,2013-12-01 07:16:00,
2013-12-01 01:20:00,49.7,48.0,30.14,SSE,153,0.0,0.0,94,0.00,,CLR,0.00,44.00,VWS V15.00,2013-12-01 07:20:00,
2013-12-01 01:21:00,49.7,48.0,30.14,SSE,156,0.0,0.0,94,0.00,,BKN300,0.00,44.00,VWS V15.00,2013-12-01 07:21:00,
2013-12-01 01:26:00,49.7,48.0,30.14,SSE,164,0.0,1.0,94,0.00,,BKN300,0.00,44.00,VWS V15.00,2013-12-01 07:26:00,
2013-12-01 01:30:00,49.7,48.0,30.14,SSE,167,0.0,1.0,94,0.00,,CLR,0.00,44.00,VWS V15.00,2013-12-01 07:30:00,
2013-12-01 01:31:00,49.7,48.0,30.14,SSE,167,0.0,1.0,94,0.00,,BKN300,0.00,44.00,VWS V15.00,2013-12-01 07:31:00,
2013-12-01 01:36:00,49.7,48.3,30.14,SSW,199,0.0,1.0,95,0.00,,BKN300,0.00,44.00,VWS V15.00,2013-12-01 07:36:00,
2013-12-01 01:40:00,49.7,48.3,30.14,SSW,199,0.0,1.0,95,0.00,,CLR,0.00,44.00,VWS V15.00,2013-12-01 07:40:00,
2013-12-01 01:41:00,49.7,48.0,30.14,SSW,199,0.0,1.0,94,0.00,,BKN300,0.00,44.00,VWS V15.00,2013-12-01 07:41:00,
2013-12-01 01:46:00,49.7,48.3,30.14,SSW,199,0.0,1.0,95,0.00,,BKN300,0.00,44.00,VWS V15.00,2013-12-01 07:46:00,
2013-12-01 01:50:00,49.7,48.3,30.13,South,178,0.0,1.0,95,0.00,,CLR,0.00,44.00,VWS V15.00,2013-12-01 07:50:00,
2013-12-01 01:51:00,49.6,48.2,30.13,SSE,160,0.0,1.0,95,0.00,,BKN300,0.00,44.00,VWS V15.00,2013-12-01 07:51:00,
2013-12-01 01:56:00,49.7,48.3,30.13,SE,142,0.0,1.0,95,0.00,,BKN300,0.00,44.00,VWS V15.00,2013-12-01 07:56:00,
2013-12-01 02:00:00,49.9,48.5,30.14,SSE,160,0.0,1.0,95,0.00,,CLR,0.00,44.00,VWS V15.00,2013-12-01 08:00:00,
2013-12-01 02:01:00,49.9,48.5,30.13,SSE,157,0.0,1.0,95,0.00,,BKN300,0.00,44.00,VWS V15.00,2013-12-01 08:01:00,
2013-12-01 02:06:00,49.9,48.5,30.14,SSE,155,1.0,1.0,95,0.00,,BKN300,0.00,44.00,VWS V15.00,2013-12-01 08:06:00,
2013-12-01 02:10:00,49.9,48.2,30.14,SSW,198,0.0,2.0,94,0.00,,CLR,0.00,44.00,VWS V15.00,2013-12-01 08:10:00,
2013-12-01 02:11:00,49.9,48.5,30.14,SSE,148,0.0,2.0,95,0.00,,BKN300,0.00,44.00,VWS V15.00,2013-12-01 08:11:00,
2013-12-01 02:16:00,49.9,48.2,30.14,SSE,157,0.0,1.0,94,0.00,,BKN300,0.00,44.00,VWS V15.00,2013-12-01 08:16:00,
2013-12-01 02:20:00,49.8,48.2,30.14,SE,126,1.0,2.0,94,0.00,,CLR,0.00,44.00,VWS V15.00,2013-12-01 08:20:00,
2013-12-01 02:21:00,49.8,48.2,30.14,SSE,157,1.0,1.0,94,0.00,,BKN300,0.00,44.00,VWS V15.00,2013-12-01 08:21:00,
2013-12-01 02:26:00,49.8,48.2,30.14,SSE,159,1.0,2.0,94,0.00,,BKN300,0.00,44.00,VWS V15.00,2013-12-01 08:26:00,
2013-12-01 02:30:00,49.9,48.5,30.13,SSE,162,0.0,2.0,95,0.00,,CLR,0.00,44.00,VWS V15.00,2013-12-01 08:30:00,
2013-12-01 02:31:00,49.9,48.5,30.14,SE,146,1.0,2.0,95,0.00,,BKN300,0.00,44.00,VWS V15.00,2013-12-01 08:31:00,
2013-12-01 02:36:00,49.9,48.5,30.13,SSW,211,0.0,1.0,95,0.00,,BKN300,0.00,44.00,VWS V15.00,2013-12-01 08:36:00,
2013-12-01 02:40:00,50.0,48.6,30.13,SSW,212,0.0,1.0,95,0.00,,CLR,0.00,44.00,VWS V15.00,2013-12-01 08:40:00,
2013-12-01 02:41:00,49.9,48.5,30.13,SSW,211,0.0,1.0,95,0.00,,BKN300,0.00,44.00,VWS V15.00,2013-12-01 08:41:00,
2013-12-01 02:46:00,50.0,48.6,30.13,SE,140,0.0,1.0,95,0.00,,BKN300,0.00,44.00,VWS V15.00,2013-12-01 08:46:00,
2013-12-01 02:50:00,50.1,48.7,30.12,South,171,1.0,3.0,95,0.00,,CLR,0.00,44.00,VWS V15.00,2013-12-01 08:50:00,
2013-12-01 02:51:00,50.0,48.6,30.12,South,176,1.0,3.0,95,0.00,,BKN300,0.00,44.00,VWS V15.00,2013-12-01 08:51:00,
2013-12-01 02:56:00,50.1,48.7,30.12,South,172,1.0,2.0,95,0.00,,BKN300,0.00,44.00,VWS V15.00,2013-12-01 08:56:00,
2013-12-01 03:00:00,50.1,48.7,30.12,South,176,0.0,2.0,95,0.00,,CLR,0.00,44.00,VWS V15.00,2013-12-01 09:00:00,
2013-12-01 03:01:00,50.1,48.7,30.12,South,191,0.0,2.0,95,0.00,,BKN300,0.00,44.00,VWS V15.00,2013-12-01 09:01:00,
2013-12-01 03:06:00,50.1,48.7,30.12,South,190,2.0,2.0,95,0.00,,BKN300,0.00,44.00,VWS V15.00,2013-12-01 09:06:00,
2013-12-01 03:10:00,50.2,48.8,30.12,SSE,167,0.0,3.0,95,0.00,,CLR,0.00,44.00,VWS V15.00,2013-12-01 09:10:00,
2013-12-01 03:11:00,50.2,48.8,30.12,SSE,164,1.0,2.0,95,0.00,,BKN300,0.00,44.00,VWS V15.00,2013-12-01 09:11:00,
2013-12-01 03:16:00,50.3,48.9,30.12,SSE,155,1.0,2.0,95,0.00,,BKN300,0.00,44.00,VWS V15.00,2013-12-01 09:16:00,
2013-12-01 03:20:00,50.2,48.8,30.12,SSW,200,1.0,2.0,95,0.00,,CLR,0.00,44.00,VWS V15.00,2013-12-01 09:20:00,
2013-12-01 03:21:00,50.2,48.8,30.12,SE,142,1.0,2.0,95,0.00,,BKN300,0.00,44.00,VWS V15.00,2013-12-01 09:21:00,
2013-12-01 03:26:00,50.2,48.8,30.12,SE,129,0.0,1.0,95,0.00,,BKN300,0.00,44.00,VWS V15.00,2013-12-01 09:26:00,
2013-12-01 03:30:00,50.2,48.8,30.12,SW,220,0.0,2.0,95,0.00,,CLR,0.00,44.00,VWS V15.00,2013-12-01 09:30:00,
2013-12-01 03:31:00,50.2,48.8,30.12,SE,126,0.0,2.0,95,0.00,,BKN300,0.00,44.00,VWS V15.00,2013-12-01 09:31:00,
2013-12-01 03:36:00,50.2,48.8,30.12,SW,214,0.0,1.0,95,0.00,,OVC250,0.00,44.00,VWS V15.00,2013-12-01 09:36:00,
2013-12-01 03:40:00,50.3,48.9,30.12,South,187,0.0,1.0,95,0.00,,CLR,0.00,44.00,VWS V15.00,2013-12-01 09:40:00,
2013-12-01 03:41:00,50.3,48.9,30.12,SSW,207,0.0,1.0,95,0.00,,OVC250,0.00,44.00,VWS V15.00,2013-12-01 09:41:00,
2013-12-01 03:46:00,50.3,48.9,30.12,SSE,162,0.0,1.0,95,0.00,,OVC250,0.00,44.00,VWS V15.00,2013-12-01 09:46:00,
2013-12-01 03:50:00,50.3,48.9,30.11,SE,137,0.0,2.0,95,0.00,,CLR,0.00,44.00,VWS V15.00,2013-12-01 09:50:00,
2013-12-01 03:51:00,50.3,48.9,30.11,SSE,161,0.0,1.0,95,0.00,,OVC250,0.00,44.00,VWS V15.00,2013-12-01 09:51:00,
2013-12-01 03:56:00,50.3,48.9,30.11,SE,136,2.0,2.0,95,0.00,,OVC250,0.00,44.00,VWS V15.00,2013-12-01 09:56:00,
2013-12-01 04:00:00,50.3,48.9,30.11,South,169,0.0,2.0,95,0.00,,CLR,0.00,44.00,VWS V15.00,2013-12-01 10:00:00,
2013-12-01 04:01:00,50.3,48.9,30.11,SSE,167,0.0,2.0,95,0.00,,OVC250,0.00,44.00,VWS V15.00,2013-12-01 10:01:00,
2013-12-01 04:06:00,50.3,48.9,30.11,ESE,123,1.0,1.0,95,0.00,,OVC250,0.00,44.00,VWS V15.00,2013-12-01 10:06:00,
2013-12-01 04:10:00,50.3,48.9,30.11,SSE,157,1.0,1.0,95,0.00,,CLR,0.00,44.00,VWS V15.00,2013-12-01 10:10:00,
2013-12-01 04:11:00,50.3,48.9,30.11,SSE,153,0.0,1.0,95,0.00,,OVC250,0.00,44.00,VWS V15.00,2013-12-01 10:11:00,
2013-12-01 04:16:00,50.3,49.2,30.11,ESE,115,1.0,1.0,96,0.00,,OVC250,0.00,44.00,VWS V15.00,2013-12-01 10:16:00,
2013-12-01 04:20:00,50.4,49.3,30.11,SSW,200,0.0,2.0,96,0.00,,CLR,0.00,44.00,VWS V15.00,2013-12-01 10:20:00,
2013-12-01 04:21:00,50.3,49.2,30.11,SSW,199,1.0,2.0,96,0.00,,OVC250,0.00,44.00,VWS V15.00,2013-12-01 10:21:00,
2013-12-01 04:26:00,50.3,49.2,30.11,SSE,164,0.0,0.0,96,0.00,,OVC250,0.00,44.00,VWS V15.00,2013-12-01 10:26:00,
2013-12-01 04:30:00,50.4,49.3,30.11,SE,142,0.0,1.0,96,0.00,,CLR,0.00,44.00,VWS V15.00,2013-12-01 10:30:00,
2013-12-01 04:31:00,50.4,49.3,30.11,SE,144,0.0,1.0,96,0.00,,OVC250,0.00,44.00,VWS V15.00,2013-12-01 10:31:00,
2013-12-01 04:36:00,50.3,49.2,30.11,SE,142,0.0,1.0,96,0.00,,OVC230,0.00,44.00,VWS V15.00,2013-12-01 10:36:00,
2013-12-01 04:40:00,50.4,49.3,30.11,SE,126,1.0,1.0,96,0.00,,CLR,0.00,44.00,VWS V15.00,2013-12-01 10:40:00,
2013-12-01 04:41:00,50.3,49.2,30.11,SE,133,0.0,1.0,96,0.00,,OVC230,0.00,44.00,VWS V15.00,2013-12-01 10:41:00,
2013-12-01 04:46:00,50.5,49.4,30.11,South,173,0.0,1.0,96,0.00,,OVC230,0.00,44.00,VWS V15.00,2013-12-01 10:46:00,
2013-12-01 04:50:00,50.7,49.6,30.11,SSE,150,0.0,1.0,96,0.00,,CLR,0.00,44.00,VWS V15.00,2013-12-01 10:50:00,
2013-12-01 04:51:00,50.6,49.5,30.11,SSE,150,0.0,1.0,96,0.00,,OVC230,0.00,44.00,VWS V15.00,2013-12-01 10:51:00,
2013-12-01 04:56:00,50.7,49.6,30.11,SSE,150,0.0,0.0,96,0.00,,OVC230,0.00,44.00,VWS V15.00,2013-12-01 10:56:00,
2013-12-01 05:00:00,50.9,49.8,30.12,SSE,150,0.0,0.0,96,0.00,,CLR,0.00,44.00,VWS V15.00,2013-12-01 11:00:00,
2013-12-01 05:01:00,50.8,49.7,30.11,SSE,150,0.0,0.0,96,0.00,,OVC230,0.00,44.00,VWS V15.00,2013-12-01 11:01:00,
2013-12-01 05:06:00,51.0,49.9,30.12,SE,141,0.0,0.0,96,0.00,,OVC230,0.00,44.00,VWS V15.00,2013-12-01 11:06:00,
2013-12-01 05:10:00,51.2,50.1,30.12,SE,138,0.0,1.0,96,0.00,,CLR,0.00,44.00,VWS V15.00,2013-12-01 11:10:00,
2013-12-01 05:11:00,51.1,50.0,30.12,SE,139,0.0,1.0,96,0.00,,OVC230,0.00,44.00,VWS V15.00,2013-12-01 11:11:00,
2013-12-01 05:16:00,51.2,50.1,30.12,SSE,164,0.0,0.0,96,0.00,,OVC230,0.00,44.00,VWS V15.00,2013-12-01 11:16:00,
2013-12-01 05:20:00,51.3,50.2,30.12,SSE,149,1.0,1.0,96,0.00,,CLR,0.00,44.00,VWS V15.00,2013-12-01 11:20:00,
2013-12-01 05:21:00,51.3,50.2,30.12,SE,134,0.0,1.0,96,0.00,,OVC230,0.00,44.00,VWS V15.00,2013-12-01 11:21:00,
2013-12-01 05:26:00,51.3,50.2,30.12,SSE,148,0.0,1.0,96,0.00,,OVC230,0.00,44.00,VWS V15.00,2013-12-01 11:26:00,
2013-12-01 05:30:00,51.4,50.3,30.11,SE,136,0.0,1.0,96,0.00,,CLR,0.00,44.00,VWS V15.00,2013-12-01 11:30:00,
2013-12-01 05:31:00,51.4,50.3,30.12,SE,126,1.0,1.0,96,0.00,,OVC230,0.00,44.00,VWS V15.00,2013-12-01 11:31:00,
2013-12-01 05:36:00,51.4,50.3,30.11,SE,136,1.0,1.0,96,0.00,,OVC300,0.00,44.00,VWS V15.00,2013-12-01 11:36:00,
2013-12-01 05:40:00,51.4,50.3,30.11,SSE,168,1.0,1.0,96,0.00,,CLR,0.00,44.00,VWS V15.00,2013-12-01 11:40:00,
2013-12-01 05:41:00,51.4,50.3,30.11,SE,145,0.0,1.0,96,0.00,,OVC300,0.00,44.00,VWS V15.00,2013-12-01 11:41:00,
2013-12-01 05:46:00,51.5,50.4,30.11,SSE,168,0.0,1.0,96,0.00,,OVC300,0.00,44.00,VWS V15.00,2013-12-01 11:46:00,
2013-12-01 05:50:00,51.5,50.4,30.11,SE,126,0.0,2.0,96,0.00,,CLR,0.00,44.00,VWS V15.00,2013-12-01 11:50:00,
2013-12-01 05:51:00,51.5,50.4,30.11,SSE,153,1.0,1.0,96,0.00,,OVC029,0.00,44.00,VWS V15.00,2013-12-01 11:51:00,
2013-12-01 05:56:00,51.6,50.5,30.11,SSE,157,0.0,1.0,96,0.00,,OVC029,0.00,44.00,VWS V15.00,2013-12-01 11:56:00,
2013-12-01 06:00:00,51.6,50.5,30.11,SE,139,0.0,2.0,96,0.00,,CLR,0.00,44.00,VWS V15.00,2013-12-01 12:00:00,
2013-12-01 06:01:00,51.6,50.5,30.11,SE,129,0.0,1.0,96,0.00,,OVC029,0.00,44.00,VWS V15.00,2013-12-01 12:01:00,
2013-12-01 06:06:00,51.6,50.5,30.11,SSW,203,0.0,1.0,96,0.00,,OVC029,0.00,44.00,VWS V15.00,2013-12-01 12:06:00,
2013-12-01 06:10:00,51.6,50.5,30.11,SE,129,1.0,3.0,96,0.00,,CLR,0.00,44.00,VWS V15.00,2013-12-01 12:10:00,
2013-12-01 06:11:00,51.7,50.6,30.11,SE,133,1.0,3.0,96,0.00,,OVC029,0.00,44.00,VWS V15.00,2013-12-01 12:11:00,
2013-12-01 06:16:00,51.6,50.5,30.11,SSE,163,0.0,2.0,96,0.00,,OVC029,0.00,44.00,VWS V15.00,2013-12-01 12:16:00,
2013-12-01 06:20:00,51.6,50.5,30.10,South,174,1.0,2.0,96,0.00,,CLR,0.00,44.00,VWS V15.00,2013-12-01 12:20:00,
2013-12-01 06:21:00,51.6,50.5,30.10,SSW,211,1.0,2.0,96,0.00,,OVC029,0.00,44.00,VWS V15.00,2013-12-01 12:21:00,
2013-12-01 06:26:00,51.6,50.5,30.10,SSE,167,1.0,2.0,96,0.00,,OVC029,0.00,44.00,VWS V15.00,2013-12-01 12:26:00,
2013-12-01 06:30:00,51.8,50.7,30.10,SSE,161,1.0,3.0,96,0.00,,CLR,0.00,44.00,VWS V15.00,2013-12-01 12:30:00,
2013-12-01 06:31:00,51.8,50.7,30.10,ESE,119,2.0,3.0,96,0.00,,OVC029,0.00,44.00,VWS V15.00,2013-12-01 12:31:00,
2013-12-01 06:36:00,51.8,50.7,30.10,SW,217,3.0,3.0,96,0.00,,OVC300,0.00,44.00,VWS V15.00,2013-12-01 12:36:00,
2013-12-01 06:40:00,51.9,50.8,30.10,South,176,2.0,4.0,96,0.00,,CLR,0.00,44.00,VWS V15.00,2013-12-01 12:40:00,
2013-12-01 06:41:00,51.9,50.8,30.10,South,180,2.0,3.0,96,0.00,,OVC300,0.00,44.00,VWS V15.00,2013-12-01 12:41:00,
2013-12-01 06:46:00,51.9,50.8,30.10,South,187,1.0,3.0,96,0.00,,OVC300,0.00,44.00,VWS V15.00,2013-12-01 12:46:00,
2013-12-01 06:50:00,51.9,50.8,30.09,ESE,105,5.0,5.0,96,0.00,,CLR,0.00,44.00,VWS V15.00,2013-12-01 12:50:00,
2013-12-01 06:51:00,51.9,50.8,30.09,SE,141,1.0,3.0,96,0.00,,OVC300,0.00,44.00,VWS V15.00,2013-12-01 12:51:00,
2013-12-01 06:56:00,51.9,50.8,30.09,SSE,164,2.0,5.0,96,0.00,,OVC300,0.00,44.00,VWS V15.00,2013-12-01 12:56:00,
2013-12-01 07:00:00,51.9,50.8,30.10,SSE,152,1.0,5.0,96,0.00,,CLR,0.00,44.00,VWS V15.00,2013-12-01 13:00:00,
2013-12-01 07:01:00,51.9,50.8,30.09,South,191,1.0,5.0,96,0.00,,OVC300,0.00,44.00,VWS V15.00,2013-12-01 13:01:00,
2013-12-01 07:06:00,51.9,50.8,30.10,SSW,213,0.0,3.0,96,0.00,,OVC300,0.00,44.00,VWS V15.00,2013-12-01 13:06:00,
2013-12-01 07:10:00,51.8,50.7,30.10,SE,126,0.0,3.0,96,0.00,,CLR,0.00,44.00,VWS V15.00,2013-12-01 13:10:00,
2013-12-01 07:11:00,51.9,50.8,30.10,SE,128,1.0,3.0,96,0.00,,OVC300,0.00,44.00,VWS V15.00,2013-12-01 13:11:00,
2013-12-01 07:16:00,51.8,50.7,30.10,SE,140,0.0,1.0,96,0.00,,OVC300,0.00,44.00,VWS V15.00,2013-12-01 13:16:00,
2013-12-01 07:20:00,51.7,50.6,30.09,ESE,116,0.0,1.0,96,0.00,,CLR,0.00,44.00,VWS V15.00,2013-12-01 13:20:00,
2013-12-01 07:21:00,51.7,50.6,30.09,SSE,149,0.0,1.0,96,0.00,,OVC300,0.00,44.00,VWS V15.00,2013-12-01 13:21:00,
2013-12-01 07:26:00,51.6,50.5,30.09,SE,144,0.0,1.0,96,0.00,,OVC300,0.00,44.00,VWS V15.00,2013-12-01 13:26:00,
2013-12-01 07:30:00,51.6,50.5,30.11,SSE,156,0.0,1.0,96,0.00,,CLR,0.00,44.00,VWS V15.00,2013-12-01 13:30:00,
2013-12-01 07:31:00,51.7,50.6,30.09,SE,129,0.0,1.0,96,0.00,,OVC300,0.00,44.00,VWS V15.00,2013-12-01 13:31:00,
2013-12-01 07:36:00,51.6,50.5,30.11,ESE,117,0.0,2.0,96,0.00,,BKN300,0.00,44.00,VWS V15.00,2013-12-01 13:36:00,
2013-12-01 07:40:00,51.8,51.0,30.11,SE,138,1.0,2.0,97,0.00,,CLR,0.00,44.00,VWS V15.00,2013-12-01 13:40:00,
2013-12-01 07:41:00,51.8,50.7,30.11,SSE,155,1.0,2.0,96,0.00,,BKN300,0.00,44.00,VWS V15.00,2013-12-01 13:41:00,
2013-12-01 07:46:00,51.9,51.1,30.11,SSW,194,0.0,1.0,97,0.00,,BKN300,0.00,44.00,VWS V15.00,2013-12-01 13:46:00,
2013-12-01 07:50:00,52.3,51.5,30.10,SSW,206,1.0,2.0,97,0.00,,OVC270,0.00,44.00,VWS V15.00,2013-12-01 13:50:00,
2013-12-01 07:51:00,52.2,51.4,30.10,South,183,1.0,2.0,97,0.00,,BKN300,0.00,44.00,VWS V15.00,2013-12-01 13:51:00,
2013-12-01 07:56:00,52.4,51.6,30.10,SE,135,1.0,1.0,97,0.00,,BKN300,0.00,44.00,VWS V15.00,2013-12-01 13:56:00,
2013-12-01 08:00:00,52.5,51.7,30.10,SE,142,1.0,3.0,97,0.00,,CLR,0.00,44.00,VWS V15.00,2013-12-01 14:00:00,
2013-12-01 08:01:00,52.5,51.7,30.10,ESE,123,1.0,3.0,97,0.00,,BKN300,0.00,44.00,VWS V15.00,2013-12-01 14:01:00,
2013-12-01 08:06:00,52.6,51.8,30.10,SSE,152,0.0,2.0,97,0.00,,BKN300,0.00,44.00,VWS V15.00,2013-12-01 14:06:00,
2013-12-01 08:10:00,52.8,52.0,30.10,SE,129,1.0,4.0,97,0.00,,CLR,0.00,44.00,VWS V15.00,2013-12-01 14:10:00,
2013-12-01 08:11:00,52.7,51.9,30.10,SE,137,1.0,3.0,97,0.00,,BKN300,0.00,44.00,VWS V15.00,2013-12-01 14:11:00,
2013-12-01 08:16:00,52.9,52.1,30.10,SE,146,2.0,2.0,97,0.00,,BKN300,0.00,44.00,VWS V15.00,2013-12-01 14:16:00,
2013-12-01 08:20:00,53.3,52.5,30.09,SSE,152,0.0,2.0,97,0.00,,CLR,0.00,44.00,VWS V15.00,2013-12-01 14:20:00,
2013-12-01 08:21:00,53.1,52.3,30.09,SE,128,0.0,2.0,97,0.00,,BKN300,0.00,44.00,VWS V15.00,2013-12-01 14:21:00,
2013-12-01 08:26:00,53.3,52.5,30.09,SE,144,1.0,1.0,97,0.00,,BKN300,0.00,44.00,VWS V15.00,2013-12-01 14:26:00,
2013-12-01 08:30:00,53.5,52.4,30.10,SE,144,1.0,3.0,96,0.00,,CLR,0.00,44.00,VWS V15.00,2013-12-01 14:30:00,
2013-12-01 08:31:00,53.5,52.4,30.09,SE,130,1.0,3.0,96,0.00,,BKN300,0.00,44.00,VWS V15.00,2013-12-01 14:31:00,
2013-12-01 08:36:00,53.6,52.5,30.10,SE,132,1.0,4.0,96,0.00,,BKN300,0.00,44.00,VWS V15.00,2013-12-01 14:36:00,
2013-12-01 08:40:00,53.9,52.8,30.10,SSE,157,1.0,4.0,96,0.00,,CLR,0.00,44.00,VWS V15.00,2013-12-01 14:40:00,
2013-12-01 08:41:00,53.8,52.7,30.10,SSE,149,1.0,4.0,96,0.00,,BKN300,0.00,44.00,VWS V15.00,2013-12-01 14:41:00,
2013-12-01 08:46:00,54.0,52.9,30.10,SSE,153,0.0,1.0,96,0.00,,BKN300,0.00,44.00,VWS V15.00,2013-12-01 14:46:00,
2013-12-01 08:50:00,54.3,53.2,30.10,SE,142,2.0,5.0,96,0.00,,CLR,0.00,44.00,VWS V15.00,2013-12-01 14:50:00,
2013-12-01 08:51:00,54.2,53.1,30.10,SSW,192,1.0,3.0,96,0.00,,BKN300,0.00,44.00,VWS V15.00,2013-12-01 14:51:00,
2013-12-01 08:56:00,54.5,53.4,30.10,South,190,1.0,3.0,96,0.00,,BKN300,0.00,44.00,VWS V15.00,2013-12-01 14:56:00,
2013-12-01 09:00:00,55.3,54.2,30.10,South,180,2.0,5.0,96,0.00,,CLR,0.00,44.00,VWS V15.00,2013-12-01 15:00:00,
2013-12-01 09:01:00,55.0,53.9,30.10,South,169,1.0,3.0,96,0.00,,BKN300,0.00,44.00,VWS V15.00,2013-12-01 15:01:00,
2013-12-01 09:06:00,55.5,54.4,30.10,ESE,120,6.0,6.0,96,0.00,,BKN300,0.00,44.00,VWS V15.00,2013-12-01 15:06:00,
2013-12-01 09:10:00,55.9,54.5,30.10,SSW,194,1.0,6.0,95,0.00,,CLR,0.00,44.00,VWS V15.00,2013-12-01 15:10:00,
2013-12-01 09:11:00,55.7,54.3,30.10,SSE,164,2.0,6.0,95,0.00,,BKN300,0.00,44.00,VWS V15.00,2013-12-01 15:11:00,
2013-12-01 09:16:00,56.0,54.6,30.10,ESE,107,3.0,4.0,95,0.00,,BKN300,0.00,44.00,VWS V15.00,2013-12-01 15:16:00,
2013-12-01 09:20:00,56.5,54.8,30.10,South,183,3.0,10.0,94,0.00,,CLR,0.00,44.00,VWS V15.00,2013-12-01 15:20:00,
2013-12-01 09:21:00,56.3,54.6,30.10,SW,217,10.0,10.0,94,0.00,,BKN300,0.00,44.00,VWS V15.00,2013-12-01 15:21:00,
2013-12-01 09:26:00,56.7,55.0,30.10,SSW,196,3.0,3.0,94,0.00,,BKN300,0.00,44.00,VWS V15.00,2013-12-01 15:26:00,
2013-12-01 09:30:00,57.2,54.9,30.10,South,171,3.0,5.0,92,0.00,,CLR,0.00,44.00,VWS V15.00,2013-12-01 15:30:00,
2013-12-01 09:31:00,57.2,55.2,30.10,SSW,213,5.0,5.0,93,0.00,,BKN300,0.00,44.00,VWS V15.00,2013-12-01 15:31:00,
2013-12-01 09:36:00,57.4,55.1,30.10,SSW,209,1.0,3.0,92,0.00,,BKN300,0.00,44.00,VWS V15.00,2013-12-01 15:36:00,
2013-12-01 09:40:00,57.8,55.5,30.10,SSW,206,5.0,7.0,92,0.00,,CLR,0.00,44.00,VWS V15.00,2013-12-01 15:40:00,
2013-12-01 09:41:00,57.7,55.4,30.10,SE,141,1.0,5.0,92,0.00,,BKN300,0.00,44.00,VWS V15.00,2013-12-01 15:41:00,
2013-12-01 09:46:00,58.0,55.4,30.10,South,176,2.0,5.0,91,0.00,,BKN300,0.00,44.00,VWS V15.00,2013-12-01 15:46:00,
2013-12-01 09:50:00,58.4,55.5,30.10,SSW,206,4.0,6.0,90,0.00,,CLR,0.00,44.00,VWS V15.00,2013-12-01 15:50:00,
2013-12-01 09:51:00,58.3,55.7,30.10,SSW,213,4.0,6.0,91,0.00,,BKN300,0.00,44.00,VWS V15.00,2013-12-01 15:51:00,
2013-12-01 09:56:00,58.6,55.7,30.10,South,182,5.0,7.0,90,0.00,,BKN300,0.00,44.00,VWS V15.00,2013-12-01 15:56:00,
2013-12-01 10:00:00,59.2,56.0,30.10,SSE,157,2.0,7.0,89,0.00,,CLR,0.00,44.00,VWS V15.00,2013-12-01 16:00:00,
2013-12-01 10:01:00,59.1,55.9,30.10,SSW,209,5.0,7.0,89,0.00,,BKN300,0.00,44.00,VWS V15.00,2013-12-01 16:01:00,
2013-12-01 10:07:00,59.4,56.2,30.10,SSE,167,3.0,5.0,89,0.00,,BKN300,0.00,44.00,VWS V15.00,2013-12-01 16:07:00,
2013-12-01 10:10:00,60.2,56.6,30.10,South,188,5.0,9.0,88,0.00,,CLR,0.00,44.00,VWS V15.00,2013-12-01 16:10:00,
2013-12-01 10:12:00,60.0,56.4,30.10,South,179,3.0,7.0,88,0.00,,BKN300,0.00,44.00,VWS V15.00,2013-12-01 16:12:00,
2013-12-01 10:17:00,60.5,56.3,30.10,South,188,2.0,6.0,86,0.00,,BKN300,0.00,44.00,VWS V15.00,2013-12-01 16:17:00,
2013-12-01 10:20:00,61.1,56.9,30.10,SSE,164,3.0,14.0,86,0.00,,CLR,0.00,44.00,VWS V15.00,2013-12-01 16:20:00,
2013-12-01 10:22:00,61.0,56.8,30.10,SSE,164,3.0,14.0,86,0.00,,BKN300,0.00,44.00,VWS V15.00,2013-12-01 16:22:00,
2013-12-01 10:27:00,61.6,57.0,30.10,SW,221,11.0,11.0,85,0.00,,BKN300,0.00,44.00,VWS V15.00,2013-12-01 16:27:00,
2013-12-01 10:30:00,62.2,57.0,30.09,SSW,205,4.0,11.0,83,0.00,,CLR,0.00,44.00,VWS V15.00,2013-12-01 16:30:00,
2013-12-01 10:32:00,62.1,57.2,30.10,South,187,2.0,11.0,84,0.00,,BKN300,0.00,44.00,VWS V15.00,2013-12-01 16:32:00,
2013-12-01 10:37:00,62.4,57.2,30.09,South,174,4.0,6.0,83,0.00,,OVC300,0.00,44.00,VWS V15.00,2013-12-01 16:37:00,
2013-12-01 10:40:00,62.8,57.2,30.09,SSW,213,5.0,7.0,82,0.00,,CLR,0.00,44.00,VWS V15.00,2013-12-01 16:40:00,
2013-12-01 10:42:00,62.6,57.0,30.09,South,176,3.0,7.0,82,0.00,,OVC300,0.00,44.00,VWS V15.00,2013-12-01 16:42:00,
2013-12-01 10:47:00,63.0,57.4,30.09,SSW,199,3.0,10.0,82,0.00,,OVC300,0.00,44.00,VWS V15.00,2013-12-01 16:47:00,
2013-12-01 10:50:00,63.3,57.4,30.08,SSE,161,4.0,10.0,81,0.00,,CLR,0.00,44.00,VWS V15.00,2013-12-01 16:50:00,
2013-12-01 10:52:00,63.3,57.4,30.08,South,187,4.0,10.0,81,0.00,,OVC300,0.00,44.00,VWS V15.00,2013-12-01 16:52:00,
2013-12-01 10:57:00,63.6,57.7,30.08,SSW,195,4.0,9.0,81,0.00,,OVC300,0.00,44.00,VWS V15.00,2013-12-01 16:57:00,
2013-12-01 11:00:00,64.2,57.6,30.07,SSW,198,4.0,10.0,79,0.00,,CLR,0.00,44.00,VWS V15.00,2013-12-01 17:00:00,
2013-12-01 11:02:00,64.0,57.7,30.08,SSW,203,4.0,10.0,80,0.00,,OVC300,0.00,44.00,VWS V15.00,2013-12-01 17:02:00,
2013-12-01 11:07:00,64.2,57.6,30.07,SW,214,5.0,15.0,79,0.00,,OVC300,0.00,44.00,VWS V15.00,2013-12-01 17:07:00,
2013-12-01 11:10:00,64.4,57.4,30.07,South,181,5.0,15.0,78,0.00,,CLR,0.00,44.00,VWS V15.00,2013-12-01 17:10:00,
2013-12-01 11:12:00,64.4,57.4,30.07,SSW,198,6.0,15.0,78,0.00,,OVC300,0.00,44.00,VWS V15.00,2013-12-01 17:12:00,
2013-12-01 11:17:00,64.4,57.4,30.07,ESE,105,6.0,15.0,78,0.00,,OVC300,0.00,44.00,VWS V15.00,2013-12-01 17:17:00,
2013-12-01 11:20:00,64.8,57.8,30.06,South,179,4.0,15.0,78,0.00,,CLR,0.00,44.00,VWS V15.00,2013-12-01 17:20:00,
2013-12-01 11:23:00,64.7,57.7,30.06,South,191,5.0,15.0,78,0.00,,OVC300,0.00,44.00,VWS V15.00,2013-12-01 17:23:00,
2013-12-01 11:28:00,65.4,58.0,30.06,ESE,117,4.0,10.0,77,0.00,,OVC300,0.00,44.00,VWS V15.00,2013-12-01 17:28:00,
2013-12-01 11:30:00,65.5,57.7,30.04,South,172,3.0,12.0,76,0.00,,CLR,0.00,44.00,VWS V15.00,2013-12-01 17:30:00,
2013-12-01 11:33:00,65.5,57.7,30.04,South,186,3.0,12.0,76,0.00,,OVC300,0.00,44.00,VWS V15.00,2013-12-01 17:33:00,
2013-12-01 11:38:00,65.5,57.7,30.04,SW,218,7.0,11.0,76,0.00,,OVC300,0.00,44.00,VWS V15.00,2013-12-01 17:38:00,
2013-12-01 11:40:00,65.6,57.8,30.04,SSW,207,3.0,13.0,76,0.00,,CLR,0.00,44.00,VWS V15.00,2013-12-01 17:40:00,
2013-12-01 11:43:00,65.6,57.8,30.04,South,188,5.0,13.0,76,0.00,,OVC300,0.00,44.00,VWS V15.00,2013-12-01 17:43:00,
2013-12-01 11:48:00,65.5,57.7,30.04,South,176,9.0,15.0,76,0.00,,OVC300,0.00,44.00,VWS V15.00,2013-12-01 17:48:00,
2013-12-01 11:50:00,65.6,57.5,30.04,SSE,163,10.0,18.0,75,0.00,,CLR,0.00,44.00,VWS V15.00,2013-12-01 17:50:00,
2013-12-01 11:53:00,65.6,57.5,30.04,SW,217,5.0,18.0,75,0.00,,OVC300,0.00,44.00,VWS V15.00,2013-12-01 17:53:00,
2013-12-01 11:58:00,65.6,57.5,30.04,SSE,165,4.0,16.0,75,0.00,,OVC300,0.00,44.00,VWS V15.00,2013-12-01 17:58:00,
2013-12-01 12:00:00,65.7,57.9,30.02,SSW,201,9.0,16.0,76,0.00,,CLR,0.00,44.00,VWS V15.00,2013-12-01 18:00:00,
2013-12-01 12:03:00,65.6,57.8,30.02,SSW,210,6.0,16.0,76,0.00,,OVC300,0.00,44.00,VWS V15.00,2013-12-01 18:03:00,
2013-12-01 12:08:00,65.8,57.7,30.02,SSE,150,3.0,13.0,75,0.00,,OVC300,0.00,44.00,VWS V15.00,2013-12-01 18:08:00,
2013-12-01 12:10:00,65.7,57.6,30.02,SSW,202,9.0,13.0,75,0.00,,CLR,0.00,44.00,VWS V15.00,2013-12-01 18:10:00,
2013-12-01 12:13:00,65.7,57.6,30.02,SW,236,6.0,13.0,75,0.00,,OVC300,0.00,44.00,VWS V15.00,2013-12-01 18:13:00,
2013-12-01 12:18:00,65.8,57.7,30.01,SSW,194,8.0,16.0,75,0.00,,OVC300,0.00,44.00,VWS V15.00,2013-12-01 18:18:00,
2013-12-01 12:20:00,65.9,57.8,30.01,SW,215,7.0,16.0,75,0.00,,CLR,0.00,44.00,VWS V15.00,2013-12-01 18:20:00,
2013-12-01 12:23:00,65.9,57.4,30.01,SSW,207,3.0,16.0,74,0.00,,OVC300,0.00,44.00,VWS V15.00,2013-12-01 18:23:00,
2013-12-01 12:28:00,65.7,57.6,30.01,SSW,202,6.0,10.0,75,0.00,,OVC300,0.00,44.00,VWS V15.00,2013-12-01 18:28:00,
2013-12-01 12:30:00,65.9,57.4,30.00,SSW,192,4.0,13.0,74,0.00,,CLR,0.00,44.00,VWS V15.00,2013-12-01 18:30:00,
2013-12-01 12:33:00,65.8,57.3,30.00,SW,229,9.0,13.0,74,0.00,,OVC300,0.00,44.00,VWS V15.00,2013-12-01 18:33:00,
2013-12-01 12:38:00,66.4,57.5,30.00,SSW,200,6.0,12.0,73,0.00,,OVC300,0.00,44.00,VWS V15.00,2013-12-01 18:38:00,
2013-12-01 12:40:00,66.8,57.5,30.00,South,190,5.0,15.0,72,0.00,,CLR,0.00,44.00,VWS V15.00,2013-12-01 18:40:00,
2013-12-01 12:43:00,66.8,57.5,30.00,SSE,161,5.0,15.0,72,0.00,,OVC300,0.00,44.00,VWS V15.00,2013-12-01 18:43:00,
2013-12-01 12:48:00,67.4,57.7,30.00,SSW,205,12.0,12.0,71,0.00,,OVC300,0.00,44.00,VWS V15.00,2013-12-01 18:48:00,
2013-12-01 12:50:00,67.9,57.8,30.00,SSW,206,9.0,13.0,70,0.00,,CLR,0.00,44.00,VWS V15.00,2013-12-01 18:50:00,
2013-12-01 12:53:00,67.9,57.8,30.00,SSE,150,6.0,13.0,70,0.00,,OVC300,0.00,44.00,VWS V15.00,2013-12-01 18:53:00,
2013-12-01 12:58:00,68.3,58.2,30.00,South,191,6.0,13.0,70,0.00,,OVC300,0.00,44.00,VWS V15.00,2013-12-01 18:58:00,
2013-12-01 13:00:00,68.7,58.1,29.99,NE,52,6.0,13.0,69,0.00,,CLR,0.00,44.00,VWS V15.00,2013-12-01 19:00:00,
2013-12-01 13:03:00,68.7,58.1,29.99,SW,221,5.0,13.0,69,0.00,,OVC300,0.00,44.00,VWS V15.00,2013-12-01 19:03:00,
2013-12-01 13:08:00,69.2,57.8,29.99,SSE,158,2.0,10.0,67,0.00,,OVC300,0.00,44.00,VWS V15.00,2013-12-01 19:08:00,
2013-12-01 13:10:00,69.6,57.8,29.99,South,184,5.0,10.0,66,0.00,,CLR,0.00,44.00,VWS V15.00,2013-12-01 19:10:00,
2013-12-01 13:13:00,69.6,57.8,29.99,South,191,3.0,10.0,66,0.00,,OVC300,0.00,44.00,VWS V15.00,2013-12-01 19:13:00,
2013-12-01 13:18:00,69.5,57.7,29.98,South,183,3.0,7.0,66,0.00,,OVC300,0.00,44.00,VWS V15.00,2013-12-01 19:18:00,
2013-12-01 13:20:00,69.6,57.8,29.98,SSW,198,4.0,11.0,66,0.00,,CLR,0.00,44.00,VWS V15.00,2013-12-01 19:20:00,
2013-12-01 13:23:00,69.6,57.8,29.98,North,360,3.0,11.0,66,0.00,,OVC300,0.00,44.00,VWS V15.00,2013-12-01 19:23:00,
2013-12-01 13:28:00,69.4,57.6,29.98,SSW,194,3.0,8.0,66,0.00,,OVC300,0.00,44.00,VWS V15.00,2013-12-01 19:28:00,
2013-12-01 13:30:00,69.2,57.8,29.96,SSW,200,4.0,13.0,67,0.00,,CLR,0.00,44.00,VWS V15.00,2013-12-01 19:30:00,
2013-12-01 13:33:00,69.1,57.7,29.96,SSE,164,4.0,13.0,67,0.00,,OVC300,0.00,44.00,VWS V15.00,2013-12-01 19:33:00,
2013-12-01 13:38:00,68.9,57.1,29.96,SSW,209,6.0,13.0,66,0.00,,OVC300,0.00,44.00,VWS V15.00,2013-12-01 19:38:00,
2013-12-01 13:40:00,68.6,57.2,29.96,SSW,203,5.0,13.0,67,0.00,,CLR,0.00,44.00,VWS V15.00,2013-12-01 19:40:00,
2013-12-01 13:43:00,68.6,57.2,29.96,SSW,213,5.0,13.0,67,0.00,,OVC300,0.00,44.00,VWS V15.00,2013-12-01 19:43:00,
2013-12-01 13:48:00,68.4,57.4,29.95,SSW,199,4.0,10.0,68,0.00,,OVC300,0.00,44.00,VWS V15.00,2013-12-01 19:48:00,
2013-12-01 13:50:00,68.2,57.2,29.95,SSE,165,6.0,10.0,68,0.00,,CLR,0.00,44.00,VWS V15.00,2013-12-01 19:50:00,
2013-12-01 13:53:00,68.2,57.2,29.95,SSW,196,7.0,10.0,68,0.00,,OVC300,0.00,44.00,VWS V15.00,2013-12-01 19:53:00,
2013-12-01 13:58:00,67.9,57.4,29.95,SSE,155,4.0,10.0,69,0.00,,OVC300,0.00,44.00,VWS V15.00,2013-12-01 19:58:00,
2013-12-01 14:00:00,67.7,57.2,29.95,SW,229,2.0,10.0,69,0.00,,CLR,0.00,44.00,VWS V15.00,2013-12-01 20:00:00,
2013-12-01 14:03:00,67.7,57.2,29.95,South,180,4.0,10.0,69,0.00,,OVC300,0.00,44.00,VWS V15.00,2013-12-01 20:03:00,
2013-12-01 14:08:00,67.6,57.1,29.95,SSW,195,5.0,9.0,69,0.00,,OVC300,0.00,44.00,VWS V15.00,2013-12-01 20:08:00,
2013-12-01 14:10:00,67.4,57.3,29.95,South,186,6.0,12.0,70,0.00,,CLR,0.00,44.00,VWS V15.00,2013-12-01 20:10:00,
2013-12-01 14:13:00,67.4,57.3,29.95,SSE,155,5.0,12.0,70,0.00,,OVC300,0.00,44.00,VWS V15.00,2013-12-01 20:13:00,
2013-12-01 14:20:00,67.1,57.4,29.95,SSW,193,5.0,11.0,71,0.00,,CLR,0.00,44.00,VWS V15.00,2013-12-01 20:20:00,
2013-12-01 14:21:00,67.2,57.1,29.95,SSE,166,4.0,4.0,70,0.00,,,0.00,44.00,VWS V15.00,2013-12-01 20:21:00,
2013-12-01 14:26:00,67.1,57.0,29.95,South,191,5.0,11.0,70,0.00,,,0.00,44.00,VWS V15.00,2013-12-01 20:26:00,
2013-12-01 14:30:00,67.3,57.2,29.95,South,182,5.0,11.0,70,0.00,,CLR,0.00,44.00,VWS V15.00,2013-12-01 20:30:00,
2013-12-01 14:31:00,67.2,57.5,29.95,South,183,3.0,11.0,71,0.00,,,0.00,44.00,VWS V15.00,2013-12-01 20:31:00,
2013-12-01 14:36:00,67.2,57.5,29.95,SSW,206,5.0,13.0,71,0.00,,OVC300,0.00,44.00,VWS V15.00,2013-12-01 20:36:00,
2013-12-01 14:40:00,67.3,57.2,29.95,SE,146,2.0,13.0,70,0.00,,CLR,0.00,44.00,VWS V15.00,2013-12-01 20:40:00,
2013-12-01 14:41:00,67.3,57.6,29.95,South,169,3.0,13.0,71,0.00,,OVC300,0.00,44.00,VWS V15.00,2013-12-01 20:41:00,
2013-12-01 14:46:00,67.2,57.5,29.95,South,180,3.0,6.0,71,0.00,,OVC300,0.00,44.00,VWS V15.00,2013-12-01 20:46:00,
2013-12-01 14:50:00,67.1,57.4,29.94,SSW,207,6.0,10.0,71,0.00,,CLR,0.00,44.00,VWS V15.00,2013-12-01 20:50:00,
2013-12-01 14:51:00,67.1,57.4,29.94,South,191,5.0,10.0,71,0.00,,OVC300,0.00,44.00,VWS V15.00,2013-12-01 20:51:00,
2013-12-01 14:56:00,67.0,57.3,29.94,SSW,192,3.0,12.0,71,0.00,,OVC300,0.00,44.00,VWS V15.00,2013-12-01 20:56:00,
2013-12-01 15:00:00,66.9,57.6,29.93,SSW,196,6.0,12.0,72,0.00,,CLR,0.00,44.00,VWS V15.00,2013-12-01 21:00:00,
2013-12-01 15:01:00,66.9,57.2,29.94,SSE,147,4.0,12.0,71,0.00,,OVC300,0.00,44.00,VWS V15.00,2013-12-01 21:01:00,
2013-12-01 15:06:00,66.9,57.2,29.93,SSW,196,6.0,8.0,71,0.00,,OVC300,0.00,44.00,VWS V15.00,2013-12-01 21:06:00,
2013-12-01 15:10:00,66.6,57.3,29.93,South,191,4.0,10.0,72,0.00,,CLR,0.00,44.00,VWS V15.00,2013-12-01 21:10:00,
2013-12-01 15:11:00,66.7,57.4,29.93,SSW,205,4.0,10.0,72,0.00,,OVC300,0.00,44.00,VWS V15.00,2013-12-01 21:11:00,
2013-12-01 15:16:00,66.5,57.2,29.93,South,173,4.0,7.0,72,0.00,,OVC300,0.00,44.00,VWS V15.00,2013-12-01 21:16:00,
2013-12-01 15:20:00,66.4,57.5,29.93,SSW,206,4.0,13.0,73,0.00,,CLR,0.00,44.00,VWS V15.00,2013-12-01 21:20:00,
2013-12-01 15:21:00,66.4,57.5,29.93,South,191,2.0,13.0,73,0.00,,OVC300,0.00,44.00,VWS V15.00,2013-12-01 21:21:00,
2013-12-01 15:26:00,66.3,57.4,29.93,SSW,198,5.0,10.0,73,0.00,,OVC300,0.00,44.00,VWS V15.00,2013-12-01 21:26:00,
2013-12-01 15:30:00,66.1,57.6,29.93,SSE,163,3.0,10.0,74,0.00,,CLR,0.00,44.00,VWS V15.00,2013-12-01 21:30:00,
2013-12-01 15:31:00,66.1,57.2,29.93,SSW,196,5.0,10.0,73,0.00,,OVC300,0.00,44.00,VWS V15.00,2013-12-01 21:31:00,
2013-12-01 15:36:00,66.2,57.3,29.93,SSE,155,6.0,10.0,73,0.00,,OVC300,0.00,44.00,VWS V15.00,2013-12-01 21:36:00,
2013-12-01 15:40:00,66.1,57.6,29.93,SSW,203,5.0,11.0,74,0.00,,CLR,0.00,44.00,VWS V15.00,2013-12-01 21:40:00,
2013-12-01 15:41:00,66.1,57.2,29.93,South,169,5.0,11.0,73,0.00,,OVC300,0.00,44.00,VWS V15.00,2013-12-01 21:41:00,
2013-12-01 15:46:00,66.1,57.6,29.93,South,176,6.0,10.0,74,0.00,,OVC300,0.00,44.00,VWS V15.00,2013-12-01 21:46:00,
2013-12-01 15:50:00,66.1,57.6,29.92,SSW,194,3.0,10.0,74,0.00,,CLR,0.00,44.00,VWS V15.00,2013-12-01 21:50:00,
2013-12-01 15:51:00,66.1,57.6,29.92,South,180,5.0,10.0,74,0.00,,OVC300,0.00,44.00,VWS V15.00,2013-12-01 21:51:00,
2013-12-01 15:56:00,66.1,57.6,29.92,SE,136,3.0,9.0,74,0.00,,OVC300,0.00,44.00,VWS V15.00,2013-12-01 21:56:00,
2013-12-01 16:00:00,65.9,57.4,29.92,SSW,196,5.0,11.0,74,0.00,,CLR,0.00,44.00,VWS V15.00,2013-12-01 22:00:00,
2013-12-01 16:01:00,66.0,57.5,29.92,SSW,202,4.0,9.0,74,0.00,,OVC300,0.00,44.00,VWS V15.00,2013-12-01 22:01:00,
2013-12-01 16:06:00,65.8,57.7,29.92,SSE,163,5.0,7.0,75,0.00,,OVC300,0.00,44.00,VWS V15.00,2013-12-01 22:06:00,
2013-12-01 16:10:00,65.7,57.6,29.92,SSE,160,2.0,7.0,75,0.00,,CLR,0.00,44.00,VWS V15.00,2013-12-01 22:10:00,
2013-12-01 16:11:00,65.7,57.6,29.92,SSW,203,7.0,7.0,75,0.00,,OVC300,0.00,44.00,VWS V15.00,2013-12-01 22:11:00,
2013-12-01 16:16:00,65.6,57.5,29.92,SSW,209,3.0,7.0,75,0.00,,OVC300,0.00,44.00,VWS V15.00,2013-12-01 22:16:00,
2013-12-01 16:20:00,65.5,57.4,29.92,South,182,2.0,7.0,75,0.00,,CLR,0.00,44.00,VWS V15.00,2013-12-01 22:20:00,
2013-12-01 16:21:00,65.6,57.5,29.92,South,184,4.0,7.0,75,0.00,,OVC300,0.00,44.00,VWS V15.00,2013-12-01 22:21:00,
2013-12-01 16:26:00,65.4,57.3,29.92,SSE,152,4.0,6.0,75,0.00,,OVC300,0.00,44.00,VWS V15.00,2013-12-01 22:26:00,
2013-12-01 16:30:00,65.2,57.1,29.92,SSE,162,2.0,10.0,75,0.00,,CLR,0.00,44.00,VWS V15.00,2013-12-01 22:30:00,
2013-12-01 16:31:00,65.4,57.3,29.92,SSW,201,3.0,10.0,75,0.00,,OVC300,0.00,44.00,VWS V15.00,2013-12-01 22:31:00,
2013-12-01 16:36:00,65.0,57.3,29.92,SSW,203,7.0,13.0,76,0.00,,OVC210,0.00,44.00,VWS V15.00,2013-12-01 22:36:00,
2013-12-01 16:40:00,64.8,57.1,29.92,South,175,9.0,13.0,76,0.00,,CLR,0.00,44.00,VWS V15.00,2013-12-01 22:40:00,
2013-12-01 16:41:00,64.9,57.2,29.92,SSW,192,2.0,13.0,76,0.00,,OVC210,0.00,44.00,VWS V15.00,2013-12-01 22:41:00,
2013-12-01 16:46:00,64.7,57.0,29.92,SSW,203,11.0,11.0,76,0.00,,OVC210,0.00,44.00,VWS V15.00,2013-12-01 22:46:00,
2013-12-01 16:50:00,64.7,57.0,29.91,SSW,206,5.0,12.0,76,0.00,,CLR,0.00,44.00,VWS V15.00,2013-12-01 22:50:00,
2013-12-01 16:51:00,64.7,57.0,29.91,SW,222,7.0,11.0,76,0.00,,OVC210,0.00,44.00,VWS V15.00,2013-12-01 22:51:00,
2013-12-01 16:56:00,64.7,57.0,29.91,SSW,200,5.0,12.0,76,0.00,,OVC210,0.00,44.00,VWS V15.00,2013-12-01 22:56:00,
2013-12-01 17:00:00,64.4,57.0,29.91,SSW,211,4.0,12.0,77,0.00,,CLR,0.00,44.00,VWS V15.00,2013-12-01 23:00:00,
2013-12-01 17:01:00,64.4,57.0,29.91,SSW,210,3.0,12.0,77,0.00,,OVC210,0.00,44.00,VWS V15.00,2013-12-01 23:01:00,
2013-12-01 17:06:00,64.4,57.0,29.91,SSW,205,2.0,6.0,77,0.00,,OVC210,0.00,44.00,VWS V15.00,2013-12-01 23:06:00,
2013-12-01 17:10:00,64.2,56.8,29.91,SSW,195,3.0,11.0,77,0.00,,CLR,0.00,44.00,VWS V15.00,2013-12-01 23:10:00,
2013-12-01 17:11:00,64.3,57.0,29.91,SSW,196,5.0,11.0,77,0.00,,OVC210,0.00,44.00,VWS V15.00,2013-12-01 23:11:00,
2013-12-01 17:16:00,64.0,56.7,29.91,South,190,2.0,6.0,77,0.00,,OVC210,0.00,44.00,VWS V15.00,2013-12-01 23:16:00,
2013-12-01 17:20:00,63.6,56.6,29.91,SSE,167,3.0,6.0,78,0.00,,CLR,0.00,44.00,VWS V15.00,2013-12-01 23:20:00,
2013-12-01 17:21:00,63.7,56.4,29.91,SSW,194,3.0,6.0,77,0.00,,OVC210,0.00,44.00,VWS V15.00,2013-12-01 23:21:00,
2013-12-01 17:26:00,63.4,56.4,29.91,SSW,199,3.0,5.0,78,0.00,,OVC210,0.00,44.00,VWS V15.00,2013-12-01 23:26:00,
2013-12-01 17:30:00,63.2,56.6,29.91,SSW,206,4.0,6.0,79,0.00,,CLR,0.00,44.00,VWS V15.00,2013-12-01 23:30:00,
2013-12-01 17:31:00,63.3,56.3,29.91,SSW,206,2.0,5.0,78,0.00,,OVC210,0.00,44.00,VWS V15.00,2013-12-01 23:31:00,
2013-12-01 17:36:00,63.1,56.5,29.91,SSW,195,2.0,4.0,79,0.00,,OVC200,0.00,44.00,VWS V15.00,2013-12-01 23:36:00,
2013-12-01 17:40:00,62.9,56.3,29.91,SSW,203,4.0,4.0,79,0.00,,CLR,0.00,44.00,VWS V15.00,2013-12-01 23:40:00,
2013-12-01 17:41:00,63.0,56.4,29.91,SSE,167,2.0,4.0,79,0.00,,OVC200,0.00,44.00,VWS V15.00,2013-12-01 23:41:00,
2013-12-01 17:46:00,62.9,56.6,29.91,South,187,1.0,5.0,80,0.00,,OVC200,0.00,44.00,VWS V15.00,2013-12-01 23:46:00,
2013-12-01 17:50:00,62.8,56.5,29.91,SSE,165,1.0,5.0,80,0.00,,CLR,0.00,44.00,VWS V15.00,2013-12-01 23:50:00,
2013-12-01 17:51:00,62.9,56.6,29.91,SSW,200,1.0,5.0,80,0.00,,OVC200,0.00,44.00,VWS V15.00,2013-12-01 23:51:00,
2013-12-01 17:56:00,62.7,56.5,29.91,SSW,192,1.0,2.0,80,0.00,,OVC200,0.00,44.00,VWS V15.00,2013-12-01 23:56:00,
2013-12-01 18:00:00,62.4,56.2,29.91,SSW,196,1.0,2.0,80,0.00,,CLR,0.00,44.00,VWS V15.00,2013-12-02 00:00:00,
2013-12-01 18:01:00,62.6,56.3,29.91,SSW,196,1.0,2.0,80,0.00,,OVC200,0.00,44.00,VWS V15.00,2013-12-02 00:01:00,
2013-12-01 18:06:00,62.4,56.5,29.91,SSE,161,0.0,2.0,81,0.00,,OVC200,0.00,44.00,VWS V15.00,2013-12-02 00:06:00,
2013-12-01 18:10:00,61.9,56.0,29.91,SSE,153,1.0,3.0,81,0.00,,CLR,0.00,44.00,VWS V15.00,2013-12-02 00:10:00,
2013-12-01 18:11:00,62.1,56.2,29.91,South,190,1.0,2.0,81,0.00,,OVC200,0.00,44.00,VWS V15.00,2013-12-02 00:11:00,
2013-12-01 18:16:00,61.7,55.8,29.91,SSE,147,1.0,2.0,81,0.00,,OVC200,0.00,44.00,VWS V15.00,2013-12-02 00:16:00,
2013-12-01 18:20:00,61.0,55.5,29.90,SSE,161,1.0,3.0,82,0.00,,CLR,0.00,44.00,VWS V15.00,2013-12-02 00:20:00,
2013-12-01 18:21:00,61.1,55.6,29.90,SE,137,1.0,2.0,82,0.00,,OVC200,0.00,44.00,VWS V15.00,2013-12-02 00:21:00,
2013-12-01 18:26:00,60.9,55.7,29.90,South,178,1.0,2.0,83,0.00,,OVC200,0.00,44.00,VWS V15.00,2013-12-02 00:26:00,
2013-12-01 18:30:00,60.7,55.5,29.90,SSW,196,1.0,2.0,83,0.00,,CLR,0.00,44.00,VWS V15.00,2013-12-02 00:30:00,
2013-12-01 18:31:00,60.7,55.5,29.90,SSE,164,0.0,2.0,83,0.00,,OVC200,0.00,44.00,VWS V15.00,2013-12-02 00:31:00,
2013-12-01 18:36:00,60.5,55.3,29.90,SSW,195,0.0,1.0,83,0.00,,OVC200,0.00,44.00,VWS V15.00,2013-12-02 00:36:00,
2013-12-01 18:40:00,60.1,55.3,29.90,SSE,164,0.0,1.0,84,0.00,,CLR,0.00,44.00,VWS V15.00,2013-12-02 00:40:00,
2013-12-01 18:41:00,60.2,55.3,29.90,SE,142,0.0,1.0,84,0.00,,OVC200,0.00,44.00,VWS V15.00,2013-12-02 00:41:00,
2013-12-01 18:46:00,60.0,55.5,29.90,SSE,164,0.0,1.0,85,0.00,,OVC200,0.00,44.00,VWS V15.00,2013-12-02 00:46:00,
2013-12-01 18:50:00,59.8,55.3,29.91,SSE,164,0.0,1.0,85,0.00,,CLR,0.00,44.00,VWS V15.00,2013-12-02 00:50:00,
2013-12-01 18:51:00,59.9,55.4,29.91,SSE,164,0.0,1.0,85,0.00,,OVC200,0.00,44.00,VWS V15.00,2013-12-02 00:51:00,
2013-12-01 18:56:00,59.7,55.2,29.91,SSE,164,0.0,0.0,85,0.00,,OVC200,0.00,44.00,VWS V15.00,2013-12-02 00:56:00,
2013-12-01 19:00:00,59.6,55.4,29.92,SSE,164,0.0,0.0,86,0.00,,CLR,0.00,44.00,VWS V15.00,2013-12-02 01:00:00,
2013-12-01 19:01:00,59.7,55.5,29.91,SSE,165,0.0,0.0,86,0.00,,OVC200,0.00,44.00,VWS V15.00,2013-12-02 01:01:00,
2013-12-01 19:06:00,59.6,55.4,29.92,SSE,164,0.0,0.0,86,0.00,,OVC200,0.00,44.00,VWS V15.00,2013-12-02 01:06:00,
2013-12-01 19:10:00,59.3,55.1,29.92,SSE,165,0.0,0.0,86,0.00,,CLR,0.00,44.00,VWS V15.00,2013-12-02 01:10:00,
2013-12-01 19:11:00,59.5,55.3,29.92,SSE,164,0.0,0.0,86,0.00,,OVC200,0.00,44.00,VWS V15.00,2013-12-02 01:11:00,
2013-12-01 19:16:00,59.2,55.0,29.92,SSE,164,0.0,0.0,86,0.00,,OVC200,0.00,44.00,VWS V15.00,2013-12-02 01:16:00,
2013-12-01 19:20:00,59.0,55.1,29.92,SSE,164,0.0,0.0,87,0.00,,CLR,0.00,44.00,VWS V15.00,2013-12-02 01:20:00,
2013-12-01 19:21:00,59.1,55.2,29.92,SSE,164,0.0,0.0,87,0.00,,OVC200,0.00,44.00,VWS V15.00,2013-12-02 01:21:00,
2013-12-01 19:26:00,58.8,55.0,29.92,SSE,164,0.0,0.0,87,0.00,,OVC200,0.00,44.00,VWS V15.00,2013-12-02 01:26:00,
2013-12-01 19:30:00,58.5,55.0,29.91,SSE,149,0.0,0.0,88,0.00,,CLR,0.00,44.00,VWS V15.00,2013-12-02 01:30:00,
2013-12-01 19:31:00,58.6,54.8,29.92,SSE,164,0.0,0.0,87,0.00,,OVC200,0.00,44.00,VWS V15.00,2013-12-02 01:31:00,
2013-12-01 19:36:00,58.5,55.0,29.91,SE,141,0.0,1.0,88,0.00,,OVC200,0.00,44.00,VWS V15.00,2013-12-02 01:36:00,
2013-12-01 19:40:00,58.4,55.2,29.91,SSW,209,0.0,1.0,89,0.00,,CLR,0.00,44.00,VWS V15.00,2013-12-02 01:40:00,
2013-12-01 19:41:00,58.4,54.9,29.91,SSE,161,1.0,1.0,88,0.00,,OVC200,0.00,44.00,VWS V15.00,2013-12-02 01:41:00,
2013-12-01 19:46:00,58.4,55.2,29.91,SSW,209,0.0,0.0,89,0.00,,OVC200,0.00,44.00,VWS V15.00,2013-12-02 01:46:00,
2013-12-01 19:50:00,58.3,55.1,29.90,SSW,209,0.0,1.0,89,0.00,,CLR,0.00,44.00,VWS V15.00,2013-12-02 01:50:00,
2013-12-01 19:51:00,58.3,55.1,29.90,SSW,209,0.0,1.0,89,0.00,,OVC200,0.00,44.00,VWS V15.00,2013-12-02 01:51:00,
2013-12-01 19:56:00,58.3,55.1,29.90,SSW,209,0.0,0.0,89,0.00,,OVC200,0.00,44.00,VWS V15.00,2013-12-02 01:56:00,
2013-12-01 20:00:00,58.2,55.0,29.91,SSW,209,0.0,0.0,89,0.00,,CLR,0.00,44.00,VWS V15.00,2013-12-02 02:00:00,
2013-12-01 20:01:00,58.3,55.1,29.90,SSW,209,0.0,0.0,89,0.00,,OVC200,0.00,44.00,VWS V15.00,2013-12-02 02:01:00,
2013-12-01 20:06:00,58.1,54.9,29.91,SSW,209,0.0,0.0,89,0.00,,OVC200,0.00,44.00,VWS V15.00,2013-12-02 02:06:00,
2013-12-01 20:10:00,57.7,54.8,29.91,SSW,209,0.0,0.0,90,0.00,,CLR,0.00,44.00,VWS V15.00,2013-12-02 02:10:00,
2013-12-01 20:11:00,57.8,54.6,29.91,SSW,209,0.0,0.0,89,0.00,,OVC200,0.00,44.00,VWS V15.00,2013-12-02 02:11:00,
2013-12-01 20:16:00,57.6,54.7,29.91,SSW,209,0.0,0.0,90,0.00,,OVC200,0.00,44.00,VWS V15.00,2013-12-02 02:16:00,
2013-12-01 20:20:00,57.3,54.4,29.90,SSW,209,0.0,0.0,90,0.00,,CLR,0.00,44.00,VWS V15.00,2013-12-02 02:20:00,
2013-12-01 20:21:00,57.4,54.5,29.90,SSW,209,0.0,0.0,90,0.00,,OVC200,0.00,44.00,VWS V15.00,2013-12-02 02:21:00,
2013-12-01 20:26:00,57.2,54.3,29.90,SSW,209,0.0,0.0,90,0.00,,OVC200,0.00,44.00,VWS V15.00,2013-12-02 02:26:00,
2013-12-01 20:30:00,56.8,53.9,29.90,SSW,209,0.0,0.0,90,0.00,,CLR,0.00,44.00,VWS V15.00,2013-12-02 02:30:00,
2013-12-01 20:31:00,56.9,54.3,29.90,SSW,209,0.0,0.0,91,0.00,,OVC200,0.00,44.00,VWS V15.00,2013-12-02 02:31:00,
2013-12-01 20:36:00,56.8,54.2,29.90,SSW,209,0.0,0.0,91,0.00,,OVC200,0.00,44.00,VWS V15.00,2013-12-02 02:36:00,
2013-12-01 20:40:00,56.6,54.0,29.90,SSW,209,0.0,0.0,91,0.00,,CLR,0.00,44.00,VWS V15.00,2013-12-02 02:40:00,
2013-12-01 20:41:00,56.7,54.1,29.90,SSW,209,0.0,0.0,91,0.00,,OVC200,0.00,44.00,VWS V15.00,2013-12-02 02:41:00,
2013-12-01 20:46:00,56.5,53.9,29.90,SSW,209,0.0,0.0,91,0.00,,OVC200,0.00,44.00,VWS V15.00,2013-12-02 02:46:00,
2013-12-01 20:50:00,56.3,54.0,29.90,SSW,209,0.0,0.0,92,0.00,,CLR,0.00,44.00,VWS V15.00,2013-12-02 02:50:00,
2013-12-01 20:51:00,56.3,54.0,29.90,SSW,209,0.0,0.0,92,0.00,,OVC200,0.00,44.00,VWS V15.00,2013-12-02 02:51:00,
2013-12-01 20:56:00,56.2,53.9,29.90,SSW,209,0.0,0.0,92,0.00,,OVC200,0.00,44.00,VWS V15.00,2013-12-02 02:56:00,
2013-12-01 21:00:00,56.1,54.1,29.90,SSW,209,1.0,1.0,93,0.00,,CLR,0.00,44.00,VWS V15.00,2013-12-02 03:00:00,
2013-12-01 21:01:00,56.1,54.1,29.90,SSW,209,0.0,1.0,93,0.00,,OVC200,0.00,44.00,VWS V15.00,2013-12-02 03:01:00,
2013-12-01 21:06:00,56.1,54.1,29.90,SSW,209,0.0,1.0,93,0.00,,OVC200,0.00,44.00,VWS V15.00,2013-12-02 03:06:00,
2013-12-01 21:10:00,56.0,54.0,29.90,SSW,200,0.0,1.0,93,0.00,,CLR,0.00,44.00,VWS V15.00,2013-12-02 03:10:00,
2013-12-01 21:11:00,56.1,54.1,29.90,SSW,201,0.0,1.0,93,0.00,,OVC200,0.00,44.00,VWS V15.00,2013-12-02 03:11:00,
2013-12-01 21:16:00,55.9,53.9,29.90,SSE,161,0.0,1.0,93,0.00,,OVC200,0.00,44.00,VWS V15.00,2013-12-02 03:16:00,
2013-12-01 21:20:00,55.7,53.7,29.88,SSE,161,0.0,1.0,93,0.00,,CLR,0.00,44.00,VWS V15.00,2013-12-02 03:20:00,
2013-12-01 21:21:00,55.7,53.7,29.88,SSE,160,0.0,1.0,93,0.00,,OVC200,0.00,44.00,VWS V15.00,2013-12-02 03:21:00,
2013-12-01 21:26:00,55.6,53.6,29.88,SSE,161,0.0,0.0,93,0.00,,OVC200,0.00,44.00,VWS V15.00,2013-12-02 03:26:00,
2013-12-01 21:30:00,55.4,53.4,29.90,SSE,161,0.0,0.0,93,0.00,,CLR,0.00,44.00,VWS V15.00,2013-12-02 03:30:00,
2013-12-01 21:31:00,55.5,53.5,29.88,SSE,160,0.0,0.0,93,0.00,,OVC200,0.00,44.00,VWS V15.00,2013-12-02 03:31:00,
2013-12-01 21:36:00,55.3,53.3,29.90,SSE,161,0.0,0.0,93,0.00,,OVC300,0.00,44.00,VWS V15.00,2013-12-02 03:36:00,
2013-12-01 21:40:00,54.8,52.8,29.90,SSE,161,0.0,0.0,93,0.00,,CLR,0.00,44.00,VWS V15.00,2013-12-02 03:40:00,
2013-12-01 21:41:00,55.0,53.0,29.90,SSE,160,0.0,0.0,93,0.00,,OVC300,0.00,44.00,VWS V15.00,2013-12-02 03:41:00,
2013-12-01 21:46:00,54.8,53.1,29.90,SSE,161,1.0,1.0,94,0.00,,OVC300,0.00,44.00,VWS V15.00,2013-12-02 03:46:00,
2013-12-01 21:50:00,54.8,53.1,29.89,SSE,155,0.0,1.0,94,0.00,,CLR,0.00,44.00,VWS V15.00,2013-12-02 03:50:00,
2013-12-01 21:51:00,54.8,53.1,29.89,SSE,155,0.0,1.0,94,0.00,,OVC300,0.00,44.00,VWS V15.00,2013-12-02 03:51:00,
2013-12-01 21:56:00,54.7,53.0,29.89,SSE,155,0.0,0.0,94,0.00,,OVC300,0.00,44.00,VWS V15.00,2013-12-02 03:56:00,
2013-12-01 22:00:00,54.7,53.3,29.89,SSE,155,0.0,0.0,95,0.00,,CLR,0.00,44.00,VWS V15.00,2013-12-02 04:00:00,
2013-12-01 22:01:00,54.8,53.4,29.89,SSE,155,0.0,0.0,95,0.00,,OVC300,0.00,44.00,VWS V15.00,2013-12-02 04:01:00,
2013-12-01 22:06:00,54.7,53.0,29.89,SSE,155,0.0,0.0,94,0.00,,OVC300,0.00,44.00,VWS V15.00,2013-12-02 04:06:00,
2013-12-01 22:10:00,54.1,52.4,29.89,SSE,155,0.0,0.0,94,0.00,,CLR,0.00,44.00,VWS V15.00,2013-12-02 04:10:00,
2013-12-01 22:11:00,54.3,52.6,29.89,SSE,155,0.0,0.0,94,0.00,,OVC300,0.00,44.00,VWS V15.00,2013-12-02 04:11:00,
2013-12-01 22:16:00,53.9,52.2,29.89,SSE,155,0.0,0.0,94,0.00,,OVC300,0.00,44.00,VWS V15.00,2013-12-02 04:16:00,
2013-12-01 22:20:00,53.7,52.3,29.88,SSE,152,0.0,0.0,95,0.00,,CLR,0.00,44.00,VWS V15.00,2013-12-02 04:20:00,
2013-12-01 22:21:00,53.7,52.0,29.88,SSE,152,0.0,0.0,94,0.00,,OVC300,0.00,44.00,VWS V15.00,2013-12-02 04:21:00,
2013-12-01 22:26:00,53.7,52.3,29.88,SSE,152,0.0,0.0,95,0.00,,OVC300,0.00,44.00,VWS V15.00,2013-12-02 04:26:00,
2013-12-01 22:30:00,53.6,52.2,29.88,SSE,152,0.0,0.0,95,0.00,,CLR,0.00,44.00,VWS V15.00,2013-12-02 04:30:00,
2013-12-01 22:31:00,53.6,52.2,29.88,SSE,152,0.0,0.0,95,0.00,,OVC300,0.00,44.00,VWS V15.00,2013-12-02 04:31:00,
2013-12-01 22:36:00,53.5,52.1,29.88,SSE,153,0.0,0.0,95,0.00,,BKN280,0.00,44.00,VWS V15.00,2013-12-02 04:36:00,
2013-12-01 22:40:00,53.2,51.8,29.88,SSE,153,0.0,0.0,95,0.00,,OVC270,0.00,44.00,VWS V15.00,2013-12-02 04:40:00,
2013-12-01 22:41:00,53.3,51.9,29.88,SSE,153,0.0,0.0,95,0.00,,BKN280,0.00,44.00,VWS V15.00,2013-12-02 04:41:00,
2013-12-01 22:46:00,53.1,51.7,29.88,SSE,153,0.0,0.0,95,0.00,,BKN280,0.00,44.00,VWS V15.00,2013-12-02 04:46:00,
2013-12-01 22:50:00,52.8,51.4,29.87,SSE,153,0.0,0.0,95,0.00,,CLR,0.00,44.00,VWS V15.00,2013-12-02 04:50:00,
2013-12-01 22:51:00,52.8,51.4,29.87,SSE,153,0.0,0.0,95,0.00,,BKN280,0.00,44.00,VWS V15.00,2013-12-02 04:51:00,
2013-12-01 22:56:00,52.7,51.3,29.87,SSE,153,0.0,0.0,95,0.00,,BKN280,0.00,44.00,VWS V15.00,2013-12-02 04:56:00,
2013-12-01 23:00:00,52.3,50.9,29.87,SSE,152,0.0,0.0,95,0.00,,CLR,0.00,44.00,VWS V15.00,2013-12-02 05:00:00,
2013-12-01 23:01:00,52.4,51.0,29.87,SSE,152,0.0,0.0,95,0.00,,BKN280,0.00,44.00,VWS V15.00,2013-12-02 05:01:00,
2013-12-01 23:02:00,52.2,50.8,29.87,SSE,153,0.0,0.0,95,0.00,,BKN280,0.00,44.00,VWS V15.00,2013-12-02 05:02:00,
2013-12-01 23:07:00,52.5,51.4,29.87,SSE,153,0.0,0.0,96,0.00,,BKN280,0.00,44.00,VWS V15.00,2013-12-02 05:07:00,
2013-12-01 23:10:00,52.6,51.5,29.87,SSE,153,0.0,1.0,96,0.00,,CLR,0.00,44.00,VWS V15.00,2013-12-02 05:10:00,
2013-12-01 23:12:00,52.6,51.5,29.87,SSE,153,1.0,1.0,96,0.00,,BKN280,0.00,44.00,VWS V15.00,2013-12-02 05:12:00,
2013-12-01 23:17:00,52.5,51.4,29.87,SSE,153,0.0,1.0,96,0.00,,BKN280,0.00,44.00,VWS V15.00,2013-12-02 05:17:00,
2013-12-01 23:20:00,52.2,50.8,29.88,SSE,152,0.0,1.0,95,0.00,,CLR,0.00,44.00,VWS V15.00,2013-12-02 05:20:00,
2013-12-01 23:22:00,52.3,50.9,29.88,SSE,152,0.0,1.0,95,0.00,,BKN280,0.00,44.00,VWS V15.00,2013-12-02 05:22:00,
2013-12-01 23:27:00,52.2,50.8,29.88,SSE,152,0.0,0.0,95,0.00,,BKN280,0.00,44.00,VWS V15.00,2013-12-02 05:27:00,
2013-12-01 23:30:00,52.4,51.3,29.87,SSE,152,0.0,0.0,96,0.00,,CLR,0.00,44.00,VWS V15.00,2013-12-02 05:30:00,
2013-12-01 23:32:00,52.3,51.2,29.88,SSE,152,0.0,0.0,96,0.00,,BKN280,0.00,44.00,VWS V15.00,2013-12-02 05:32:00,
2013-12-01 23:37:00,52.6,51.5,29.87,SSE,153,0.0,0.0,96,0.00,,BKN280,0.00,44.00,VWS V15.00,2013-12-02 05:37:00,
2013-12-01 23:40:00,53.1,52.3,29.87,SSE,153,0.0,0.0,97,0.00,,CLR,0.00,44.00,VWS V15.00,2013-12-02 05:40:00,
2013-12-01 23:42:00,53.0,52.2,29.87,SSE,152,0.0,0.0,97,0.00,,BKN280,0.00,44.00,VWS V15.00,2013-12-02 05:42:00,
2013-12-01 23:47:00,53.2,52.1,29.87,SSE,152,0.0,0.0,96,0.00,,BKN280,0.00,44.00,VWS V15.00,2013-12-02 05:47:00,
2013-12-01 23:50:00,52.3,50.9,29.87,SSE,153,0.0,0.0,95,0.00,,CLR,0.00,44.00,VWS V15.00,2013-12-02 05:50:00,
2013-12-01 23:52:00,52.5,51.1,29.87,SSE,152,0.0,0.0,95,0.00,,BKN280,0.00,44.00,VWS V15.00,2013-12-02 05:52:00,
2013-12-01 23:57:00,51.8,50.4,29.87,SSE,152,0.0,0.0,95,0.00,,BKN280,0.00,44.00,VWS V15.00,2013-12-02 05:57:00,